EW4496 Weather Reports


time (UTC)temp
F
wind
direction
speed
knots
gust
knots
rain 1hr
in
rain 24hr
in
rain mn
in
humidity
%
barometer
mb
20260510153044 62 312 0.0 0.0 0.00 0.00 0.00 76 1013.3
20260510151541 61 231 0.0 0.0 0.00 0.00 0.00 77 1013.2
20260510150049 60 286 0.0 0.9 0.00 0.00 0.00 79 1013.1
20260510144559 59 239 0.0 0.9 0.00 0.00 0.00 82 1013.1
20260510143049 58 224 0.0 0.0 0.00 0.00 0.00 84 1013.0
20260510141549 57 263 0.0 1.7 0.00 0.00 0.00 84 1012.8
20260510140049 56 229 0.0 0.0 0.00 0.00 0.00 86 1012.7
20260510134610 55 277 0.0 0.0 0.00 0.00 0.00 88 1012.6
20260510133109 54 222 0.0 0.0 0.00 0.00 0.00 89 1012.4
20260510131610 53 218 0.0 0.0 0.00 0.00 0.00 90 1012.2
20260510130109 53 240 0.0 0.0 0.00 0.00 0.00 90 1012.2
20260510124508 54 263 0.0 0.0 0.00 0.00 0.00 90 1012.1
20260510123009 54 264 0.0 0.0 0.00 0.00 0.00 90 1012.1
20260510121508 54 281 0.0 0.0 0.00 0.00 0.00 89 1012.0
20260510120008 54 285 0.0 0.0 0.00 0.00 0.00 89 1012.0
20260510114525 55 233 0.0 0.0 0.00 0.00 0.00 89 1011.9
20260510113035 55 231 0.0 0.0 0.00 0.00 0.00 89 1011.9
20260510111523 55 227 0.0 0.0 0.00 0.00 0.00 88 1011.9
20260510110037 55 226 0.0 0.0 0.00 0.00 0.00 88 1011.7
20260510104523 56 240 0.0 0.0 0.00 0.00 0.00 88 1011.7
20260510103023 55 246 0.0 0.0 0.00 0.00 0.00 89 1011.8
20260510101523 56 301 0.0 0.0 0.00 0.00 0.00 88 1011.7
20260510100023 56 293 0.0 0.0 0.00 0.00 0.00 87 1011.6
20260510094534 56 306 0.0 0.0 0.00 0.00 0.00 87 1011.5
20260510093025 56 325 0.0 0.0 0.00 0.00 0.00 87 1011.5
20260510091526 57 309 0.0 0.0 0.00 0.00 0.00 86 1011.5
20260510090025 57 263 0.0 0.0 0.00 0.00 0.00 86 1011.4
20260510084522 58 292 0.0 0.0 0.00 0.00 0.00 84 1011.3
20260510083038 59 205 0.0 0.0 0.00 0.00 0.00 83 1011.4
20260510081556 59 210 0.0 0.0 0.00 0.00 0.00 83 1011.3
20260510074554 60 236 0.0 0.0 0.00 0.00 0.00 81 1011.3
20260510073107 60 180 0.0 0.0 0.00 0.00 0.00 81 1011.4
20260510071607 60 181 0.0 0.0 0.00 0.00 0.00 81 1011.5
20260510070115 60 231 0.0 0.9 0.00 0.00 0.00 80 1011.4
20260510064608 61 321 0.0 0.0 0.00 0.00 0.00 78 1011.2
20260510063007 62 270 0.0 0.9 0.00 0.00 0.00 76 1011.3
20260510061509 62 228 0.0 0.0 0.00 0.00 0.00 76 1011.4
20260510060021 63 240 0.0 0.0 0.00 0.00 0.00 76 1011.4
20260510054554 63 219 0.0 0.0 0.00 0.00 0.00 76 1011.3
20260510053109 64 227 0.0 0.0 0.00 0.00 0.00 75 1011.3
20260510051610 65 239 0.0 0.0 0.00 0.00 0.00 74 1011.3
20260510050115 66 226 0.0 0.0 0.00 0.00 0.00 73 1011.1
20260510044606 67 254 0.0 0.0 0.00 0.00 0.00 72 1011.1
20260510043108 67 274 0.0 0.0 0.00 0.00 0.00 70 1010.9
20260510041611 68 255 0.0 0.0 0.00 0.00 0.00 70 1010.7
20260510040115 69 229 0.0 0.0 0.00 0.00 0.00 69 1010.6
20260510034606 71 294 0.0 0.0 0.00 0.00 0.00 66 1010.4
20260510033107 72 321 0.0 0.0 0.00 0.00 0.00 63 1010.2
20260510031606 74 304 0.0 0.9 0.00 0.00 0.00 61 1010.0
20260510030106 76 276 0.0 0.0 0.00 0.00 0.00 59 1009.9
20260510024605 78 298 0.0 0.9 0.00 0.00 0.00 56 1009.8
20260510023014 80 301 0.0 0.9 0.00 0.00 0.00 54 1009.7
20260510021652 81 302 0.0 0.0 0.00 0.00 0.00 54 1009.7
20260510020106 82 321 0.0 4.3 0.00 0.00 0.00 51 1009.7
20260510014606 84 320 0.0 4.3 0.00 0.00 0.00 50 1009.7
20260510013100 85 309 0.0 3.5 0.00 0.00 0.00 47 1009.7
20260510011551 86 349 0.0 5.2 0.00 0.00 0.00 45 1009.7
20260510010057 88 293 0.0 2.6 0.00 0.00 0.00 43 1009.7
20260510004550 88 288 0.0 5.2 0.00 0.00 0.00 42 1009.7
20260510003052 89 233 0.0 1.7 0.00 0.00 0.00 39 1009.7
20260510001536 89 281 0.0 3.5 0.00 0.00 0.00 40 1009.8
20260510000036 89 338 0.0 6.1 0.00 0.00 0.00 40 1009.8
20260509234536 90 328 0.0 0.9 0.00 0.00 0.00 39 1009.9
20260509233036 90 7 0.0 0.9 0.00 0.00 0.00 34 1010.0
20260509231541 90 6 0.0 2.6 0.00 0.00 0.00 34 1010.1
20260509230053 89 331 0.0 0.0 0.00 0.00 0.00 36 1010.2
20260509224550 89 20 0.0 0.9 0.00 0.00 0.00 33 1010.4
20260509223053 88 18 0.0 2.6 0.00 0.00 0.00 36 1010.6
20260509221550 88 314 0.9 5.2 0.00 0.00 0.00 36 1010.8
20260509220051 87 359 0.0 2.6 0.00 0.00 0.00 39 1010.9
20260509214550 87 357 0.0 3.5 0.00 0.00 0.00 38 1011.0
20260509213105 87 308 0.0 3.5 0.00 0.00 0.00 40 1011.3
20260509211557 86 11 0.0 1.7 0.00 0.00 0.00 44 1011.4
20260509210052 85 338 0.0 2.6 0.00 0.00 0.00 48 1011.5
20260509204549 84 19 0.0 0.9 0.00 0.00 0.00 50 1011.7
20260509203050 85 56 0.0 4.3 0.00 0.00 0.00 49 1011.9
20260509201550 83 199 0.0 3.5 0.00 0.00 0.00 53 1012.0
20260509200053 83 232 0.0 1.7 0.00 0.00 0.00 52 1012.1
20260509194557 82 322 0.0 3.5 0.00 0.00 0.00 53 1012.3
20260509193050 80 305 0.0 0.0 0.00 0.00 0.00 56 1012.5
20260509191604 80 189 0.0 1.7 0.00 0.00 0.00 55 1012.7
20260509190050 79 94 0.0 1.7 0.00 0.00 0.00 55 1013.0
20260509184558 78 182 0.0 1.7 0.00 0.00 0.00 57 1013.2
20260509183054 76 299 0.0 1.7 0.00 0.00 0.00 60 1013.3
20260509181553 76 335 0.0 0.9 0.00 0.00 0.00 60 1013.4
20260509180058 75 5 0.0 0.9 0.00 0.00 0.00 61 1013.5
20260509174549 73 311 0.0 0.9 0.00 0.00 0.00 63 1013.5
20260509173102 72 303 0.0 1.7 0.00 0.00 0.00 63 1013.5
20260509171550 71 307 0.0 0.9 0.00 0.00 0.00 65 1013.5
20260509170049 70 219 0.0 0.0 0.00 0.00 0.00 67 1013.7
20260509164548 69 292 0.0 0.0 0.00 0.00 0.00 69 1013.6
20260509163052 68 318 0.0 0.9 0.00 0.00 0.00 69 1013.7
20260509161558 67 176 0.0 0.0 0.00 0.00 0.00 70 1013.7
20260509160021 65 335 0.0 0.0 0.00 0.00 0.00 73 1013.8
20260509154518 64 192 0.0 0.0 0.00 0.00 0.00 74 1013.7